User: anonymous   Login
Location: Caltech
(34.1382°N, 118.1253°W)
Time: 20:12:31
(UTC-08:00)
Language:

Gbstr 26 Del rocket - Orbit

View from above orbital plane
View from above orbital plane
View from above satellite
View from above satellite

Ground track
Ground track

The orbit data is extracted from the following two-line orbital elements,

1 25876U 99041E   15027.20232111  .00000297  00000-0  92625-4 0  5743
2 25876 051.7642 154.9398 0537538 008.3331 052.5044 14.02848372792156
Epoch (UTC): 27 January 2015 04:51:20
Eccentricity: 0.0537538
inclination: 51.7642°
perigee height: 493 km
apogee height: 1274 km
right ascension of ascending node: 154.9398°
argument of perigee: 8.3331°
revolutions per day: 14.02848372
mean anomaly at epoch: 52.5044°
orbit number at epoch: 79215

The dashed part of the orbit path shows where the satellite is in the earth's shadow,  

DLR